When you browse on this site, cookies collect data to enhance your experience and personalize the content and advertising you see.
Visit our Privacy Policy to learn more. By continuing to use the site, you agree to this use of cookies and data.
  • In Spain
  • List of Countries
  • For 7 days
  • Water Temperature
  • Satellite Maps
  • Weather Map
  • Weather Widgets
  • user-avatar
    Login

    Hourly Weather Satif

    Today, 17 June, Monday

    Time Temperature Precipitation Wind Pressure Humidity
    00:00 +20°C° 0 mm 3 mps 672 mmHg 74%
    01:00 +20°C° 0.1 mm 3 mps 672 mmHg 77%
    02:00 +19°C° 0.1 mm 2 mps 672 mmHg 80%
    03:00 +19°C° 0.1 mm 2 mps 671 mmHg 83%
    04:00 +18°C° 0.5 mm 2 mps 672 mmHg 83%
    05:00 +18°C° 0.5 mm 2 mps 672 mmHg 83%
    06:00 +18°C° 0.5 mm 2 mps 672 mmHg 83%
    07:00 +19°C° 0.1 mm 2 mps 673 mmHg 75%
    08:00 +21°C° 0.1 mm 2 mps 673 mmHg 66%
    09:00 +22°C° 0.1 mm 3 mps 673 mmHg 58%
    10:00 +24°C° 0.2 mm 3 mps 673 mmHg 51%
    11:00 +26°C° 0.2 mm 4 mps 673 mmHg 44%
    12:00 +27°C° 0.2 mm 5 mps 674 mmHg 37%
    13:00 +27°C° 0 mm 5 mps 673 mmHg 38%
    14:00 +27°C° 0 mm 5 mps 673 mmHg 40%
    15:00 +27°C° 0 mm 6 mps 673 mmHg 42%
    16:00 +26°C° 0 mm 5 mps 673 mmHg 44%
    17:00 +25°C° 0 mm 5 mps 673 mmHg 45%
    18:00 +23°C° 0 mm 5 mps 673 mmHg 47%
    19:00 +22°C° 0 mm 4 mps 673 mmHg 50%
    20:00 +21°C° 0 mm 3 mps 673 mmHg 52%
    21:00 +20°C° 0 mm 2 mps 673 mmHg 54%
    22:00 +21°C° 0 mm 1 mps 673 mmHg 55%
    23:00 +20°C° 0 mm 1 mps 673 mmHg 57%

    Tomorrow, 18 June, Tuesday

    Time Temperature Precipitation Wind Pressure Humidity
    00:00 +18°C° 0 mm 0 mps 673 mmHg 58%
    01:00 +17°C° 0 mm 0 mps 672 mmHg 58%
    02:00 +17°C° 0 mm 0 mps 672 mmHg 59%
    03:00 +17°C° 0 mm 0 mps 672 mmHg 59%
    04:00 +18°C° 0 mm 0 mps 672 mmHg 56%
    05:00 +18°C° 0 mm 0 mps 673 mmHg 53%
    06:00 +19°C° 0 mm 0 mps 673 mmHg 50%
    07:00 +23°C° 0 mm 1 mps 673 mmHg 46%
    08:00 +25°C° 0 mm 1 mps 674 mmHg 42%
    09:00 +27°C° 0 mm 2 mps 675 mmHg 38%
    10:00 +28°C° 0 mm 2 mps 675 mmHg 33%
    11:00 +30°C° 0 mm 3 mps 675 mmHg 29%
    12:00 +31°C° 0 mm 3 mps 675 mmHg 24%
    13:00 +31°C° 0 mm 3 mps 675 mmHg 24%
    14:00 +33°C° 0 mm 4 mps 674 mmHg 23%
    15:00 +33°C° 0 mm 4 mps 674 mmHg 23%
    16:00 +32°C° 0 mm 4 mps 674 mmHg 27%
    17:00 +29°C° 0 mm 4 mps 674 mmHg 31%
    18:00 +28°C° 0 mm 3 mps 673 mmHg 36%
    19:00 +27°C° 0 mm 3 mps 673 mmHg 40%
    20:00 +26°C° 0 mm 2 mps 673 mmHg 44%
    21:00 +25°C° 0 mm 2 mps 673 mmHg 48%
    22:00 +24°C° 0 mm 1 mps 673 mmHg 49%
    23:00 +24°C° 0 mm 1 mps 673 mmHg 50%

    Day after tomorrow, 19 June, Wednesday

    Time Temperature Precipitation Wind Pressure Humidity
    00:00 +23°C° 0 mm 1 mps 673 mmHg 50%
    01:00 +23°C° 0 mm 1 mps 672 mmHg 51%
    02:00 +22°C° 0 mm 1 mps 672 mmHg 51%
    03:00 +22°C° 0 mm 1 mps 672 mmHg 51%
    04:00 +23°C° 0 mm 1 mps 672 mmHg 46%
    05:00 +24°C° 0 mm 2 mps 673 mmHg 41%
    06:00 +25°C° 0 mm 2 mps 673 mmHg 36%
    07:00 +27°C° 0 mm 3 mps 674 mmHg 32%
    08:00 +29°C° 0 mm 4 mps 675 mmHg 28%
    09:00 +32°C° 0 mm 4 mps 675 mmHg 24%
    10:00 +33°C° 0 mm 5 mps 675 mmHg 22%
    11:00 +34°C° 0 mm 5 mps 676 mmHg 20%
    12:00 +35°C° 0 mm 5 mps 676 mmHg 19%
    13:00 +35°C° 0 mm 6 mps 675 mmHg 19%
    14:00 +35°C° 0 mm 6 mps 675 mmHg 18%
    15:00 +36°C° 0 mm 6 mps 675 mmHg 18%
    16:00 +35°C° 0 mm 5 mps 674 mmHg 20%
    17:00 +34°C° 0 mm 4 mps 674 mmHg 22%
    18:00 +34°C° 0 mm 3 mps 674 mmHg 24%
    19:00 +31°C° 0 mm 3 mps 674 mmHg 29%
    20:00 +29°C° 0 mm 2 mps 674 mmHg 33%
    21:00 +28°C° 0 mm 2 mps 674 mmHg 38%
    22:00 +27°C° 0.1 mm 2 mps 673 mmHg 38%
    23:00 +27°C° 0.1 mm 2 mps 673 mmHg 38%

    20 June, Thursday

    Time Temperature Precipitation Wind Pressure Humidity
    00:00 +26°C° 0.1 mm 2 mps 673 mmHg 39%
    01:00 +26°C° 0.1 mm 2 mps 672 mmHg 39%
    02:00 +26°C° 0.1 mm 1 mps 672 mmHg 40%
    03:00 +25°C° 0.1 mm 1 mps 672 mmHg 41%
    04:00 +26°C° 0.1 mm 1 mps 672 mmHg 39%
    05:00 +27°C° 0.1 mm 1 mps 673 mmHg 37%
    06:00 +27°C° 0.1 mm 2 mps 673 mmHg 34%
    07:00 +29°C° 0 mm 3 mps 674 mmHg 29%
    08:00 +32°C° 0 mm 5 mps 674 mmHg 24%
    09:00 +34°C° 0 mm 7 mps 675 mmHg 19%
    10:00 +35°C° 0 mm 7 mps 675 mmHg 17%
    11:00 +37°C° 0 mm 8 mps 675 mmHg 16%
    12:00 +38°C° 0 mm 8 mps 675 mmHg 14%
    13:00 +38°C° 0 mm 8 mps 675 mmHg 14%
    14:00 +38°C° 0 mm 8 mps 675 mmHg 14%
    15:00 +38°C° 0 mm 8 mps 674 mmHg 13%
    16:00 +38°C° 0 mm 8 mps 674 mmHg 15%
    17:00 +36°C° 0 mm 7 mps 674 mmHg 17%
    18:00 +35°C° 0 mm 7 mps 674 mmHg 18%
    19:00 +34°C° 0 mm 6 mps 674 mmHg 20%
    20:00 +32°C° 0 mm 5 mps 673 mmHg 22%
    21:00 +30°C° 0 mm 4 mps 673 mmHg 24%
    22:00 +29°C° 0 mm 4 mps 673 mmHg 24%
    23:00 +29°C° 0 mm 4 mps 672 mmHg 24%

    21 June, Friday

    Time Temperature Precipitation Wind Pressure Humidity
    00:00 +29°C° 0 mm 4 mps 672 mmHg 24%
    01:00 +28°C° 0 mm 5 mps 672 mmHg 25%
    02:00 +28°C° 0 mm 5 mps 672 mmHg 27%
    03:00 +27°C° 0 mm 6 mps 672 mmHg 28%
    04:00 +28°C° 0 mm 6 mps 672 mmHg 28%
    05:00 +28°C° 0 mm 5 mps 673 mmHg 29%
    06:00 +28°C° 0 mm 5 mps 673 mmHg 30%
    07:00 +31°C° 0 mm 8 mps 674 mmHg 26%
    08:00 +33°C° 0 mm 10 mps 674 mmHg 22%
    09:00 +36°C° 0 mm 13 mps 675 mmHg 18%
    10:00 +37°C° 0 mm 12 mps 675 mmHg 17%
    11:00 +38°C° 0 mm 12 mps 675 mmHg 16%
    12:00 +38°C° 0 mm 11 mps 675 mmHg 15%
    13:00 +38°C° 0 mm 10 mps 675 mmHg 15%
    14:00 +38°C° 0 mm 10 mps 674 mmHg 15%
    15:00 +38°C° 0 mm 9 mps 674 mmHg 15%
    16:00 +35°C° 0 mm 9 mps 673 mmHg 20%
    17:00 +33°C° 0 mm 9 mps 673 mmHg 25%
    18:00 +31°C° 0 mm 10 mps 672 mmHg 30%
    19:00 +31°C° 0.1 mm 9 mps 673 mmHg 28%
    20:00 +31°C° 0.1 mm 8 mps 673 mmHg 27%
    21:00 +30°C° 0.1 mm 7 mps 674 mmHg 25%
    22:00 +28°C° 0 mm 5 mps 673 mmHg 31%
    23:00 +26°C° 0 mm 3 mps 672 mmHg 38%

    22 June, Saturday

    Time Temperature Precipitation Wind Pressure Humidity
    00:00 +24°C° 0 mm 2 mps 672 mmHg 44%
    01:00 +24°C° 0 mm 1 mps 672 mmHg 45%
    02:00 +23°C° 0 mm 1 mps 672 mmHg 46%
    03:00 +23°C° 0 mm 1 mps 672 mmHg 47%
    04:00 +24°C° 0 mm 1 mps 672 mmHg 43%
    05:00 +25°C° 0 mm 1 mps 673 mmHg 38%
    06:00 +26°C° 0 mm 1 mps 674 mmHg 34%
    07:00 +28°C° 0 mm 3 mps 674 mmHg 28%
    08:00 +32°C° 0 mm 6 mps 675 mmHg 23%
    09:00 +34°C° 0 mm 8 mps 675 mmHg 17%
    10:00 +35°C° 0 mm 9 mps 675 mmHg 16%
    11:00 +37°C° 0 mm 9 mps 676 mmHg 15%
    12:00 +38°C° 0 mm 10 mps 676 mmHg 13%
    13:00 +39°C° 0 mm 9 mps 675 mmHg 13%
    14:00 +39°C° 0 mm 9 mps 675 mmHg 13%
    15:00 +39°C° 0 mm 8 mps 675 mmHg 13%
    16:00 +38°C° 0 mm 8 mps 674 mmHg 14%
    17:00 +36°C° 0 mm 7 mps 674 mmHg 15%
    18:00 +35°C° 0 mm 6 mps 674 mmHg 16%
    19:00 +34°C° 0 mm 6 mps 674 mmHg 17%
    20:00 +33°C° 0 mm 6 mps 674 mmHg 17%
    21:00 +32°C° 0 mm 6 mps 673 mmHg 18%
    22:00 +32°C° 0 mm 7 mps 673 mmHg 18%
    23:00 +32°C° 0 mm 7 mps 673 mmHg 17%
    Show more